Stations météo

réclame
Mon MeteoGroup
Kirkwall, Grande-Bretagne (3017): Température de l'air & dewpoint: 14.05.2019 17:00:00 - 20.05.2019 17:00:00 (BST)Kirkwall, Grande-Bretagne (3017): Température de l'air -20cm & Température de l'air -100cm: 14.05.2019 17:00:00 - 20.05.2019 17:00:00 (BST)Kirkwall, Grande-Bretagne (3017): Vitesse du vent & gusts: 14.05.2019 17:00:00 - 20.05.2019 17:00:00 (BST)Kirkwall, Grande-Bretagne (3017): Direction du vent: 14.05.2019 17:00:00 - 20.05.2019 17:00:00 (BST)Kirkwall, Grande-Bretagne (3017): reduced air pressure: 14.05.2019 17:00:00 - 20.05.2019 17:00:00 (BST)Kirkwall, Grande-Bretagne (3017): visibility: 14.05.2019 17:00:00 - 20.05.2019 17:00:00 (BST)Kirkwall, Grande-Bretagne (3017): Ensoleillement: 14.05.2019 17:00:00 - 20.05.2019 17:00:00 (BST)Kirkwall, Grande-Bretagne (3017): Quantités de précipitations: 14.05.2019 17:00:00 - 20.05.2019 17:00:00 (BST)
Date & Time tt [°C] td [°C] tt -20cm [°C] tt -100cm [°C] ff [km/h] ff [knt] fx [km/h] fx [knt] dd ppp [hPa] vv [km] sd [min] rr [mm]
20.05.2019 17:00:00 11,7 9,6 - - 13 7 - - E 1013,8 8 0 0,0
20.05.2019 16:00:00 11,0 9,6 - - 8 4 - - N 1013,7 8 0 0,0
20.05.2019 15:00:00 11,1 9,7 - - 8 4 - - ENE 1013,4 8 0 0,0
20.05.2019 14:00:00 10,7 9,7 - - 9 5 - - ESE 1013,3 1,5 0 0,0
20.05.2019 13:00:00 11,2 9,2 - - 11 6 - - ESE 1013,1 10 0 0,0
20.05.2019 12:00:00 11,8 9,5 - - 11 6 - - SE 1012,9 25 0 0,0
20.05.2019 11:00:00 10,3 9,3 - - 13 7 - - SE 1013,1 12 0 0,0
20.05.2019 10:00:00 10,0 9,2 11,5 9,7 13 7 - - ESE 1013,0 2,6 0 0,0
20.05.2019 09:00:00 10,1 9,0 - - 15 8 - - ESE 1012,7 12 0 0,0
20.05.2019 08:00:00 10,0 8,8 - - 11 6 - - ESE 1012,2 10 0 0,0
20.05.2019 07:00:00 9,6 8,9 - - 9 5 - - E 1011,9 9 0 0,0
20.05.2019 06:00:00 9,0 8,4 - - 8 4 - - ESE 1011,7 9 0 0,0
20.05.2019 05:00:00 8,7 8,0 - - 13 7 - - ESE 1011,5 4,8 0 0,0
20.05.2019 04:00:00 9,2 8,5 - - 11 6 - - E 1011,3 10 0 0,0
20.05.2019 03:00:00 9,1 8,5 - - 11 6 - - SE 1011,5 4,1 0 0,0
20.05.2019 02:00:00 9,2 8,6 - - 9 5 - - ESE 1011,6 9 0 0,0
20.05.2019 01:00:00 8,1 7,5 - - 4 2 - - ESE 1011,7 4,8 - 0,0
20.05.2019 00:00:00 8,0 7,3 - - 0 0 - - N 1011,4 0,3 0 0,0
19.05.2019 23:00:00 7,3 6,4 - - 9 5 - - SSE 1011,2 10 0 0,0
19.05.2019 22:00:00 8,7 7,7 - - 11 6 - - S 1011,0 12 6 0,0
19.05.2019 21:00:00 10,1 8,2 - - 13 7 - - S 1010,7 16 60 0,0
19.05.2019 20:00:00 11,2 8,3 - - 16 9 - - S 1010,2 30 60 0,0
19.05.2019 19:00:00 12,2 8,6 - - 18 10 - - S 1010,1 30 54 0,0
19.05.2019 18:00:00 12,4 8,6 - - 13 7 - - SE 1009,7 45 24 0,0
19.05.2019 17:00:00 12,6 9,2 - - 13 7 - - S 1009,9 50 0 0,0
19.05.2019 16:00:00 13,1 10,2 - - 5 3 - - ESE 1009,7 35 0 0,0
19.05.2019 15:00:00 11,9 10,1 - - 11 6 - - E 1009,8 19 0 0,0
19.05.2019 14:00:00 12,3 10,0 - - 5 3 - - NNE 1009,5 35 0 0,0
19.05.2019 13:00:00 12,1 10,2 - - 9 5 - - E 1009,4 50 0 0,0
19.05.2019 12:00:00 10,9 9,7 - - 9 5 - - E 1009,4 8 0 0,0
19.05.2019 11:00:00 12,3 10,3 - - 9 5 - - ENE 1009,1 35 0 0,0
19.05.2019 10:00:00 12,0 10,7 11,4 9,7 5 3 - - E 1009,0 35 6 0,0
19.05.2019 09:00:00 10,6 10,0 - - 13 7 - - E 1009,1 8 0 0,0
19.05.2019 08:00:00 10,1 9,5 - - 11 6 - - ESE 1009,0 6 0 0,0
19.05.2019 07:00:00 9,7 9,1 - - 11 6 - - ESE 1008,9 0,8 0 0,0
19.05.2019 06:00:00 9,5 9,0 - - 15 8 - - E 1009,1 5 0 0,0
19.05.2019 05:00:00 9,6 9,0 - - 11 6 - - E 1009,0 7 0 0,2
19.05.2019 04:00:00 9,6 9,1 - - 13 7 - - ESE 1009,1 3,5 0 0,0
19.05.2019 03:00:00 9,7 9,2 - - 11 6 - - ESE 1009,3 6 0 0,0
19.05.2019 02:00:00 9,8 9,3 - - 11 6 - - ESE 1009,4 5 0 0,0
19.05.2019 01:00:00 9,6 9,1 - - 9 5 - - SE 1009,5 3,6 - 0,0
19.05.2019 00:00:00 9,7 9,2 - - 15 8 - - SE 1009,6 5 0 0,0
18.05.2019 23:00:00 9,9 9,3 - - 15 8 - - SE 1009,8 1,6 0 0,0
18.05.2019 22:00:00 10,0 9,2 - - 15 8 - - E 1009,8 3,1 0 0,0
18.05.2019 21:00:00 9,8 8,9 - - 13 7 - - ENE 1009,7 10 0 0,0
18.05.2019 20:00:00 10,0 8,9 - - 13 7 - - ENE 1009,8 9 0 0,0
18.05.2019 19:00:00 9,9 8,7 - - 13 7 - - ENE 1010,0 11 0 0,0
18.05.2019 18:00:00 9,8 8,5 - - 16 9 - - ENE 1010,3 10 0 0,0
18.05.2019 17:00:00 9,9 8,6 - - 15 8 - - ENE 1010,4 13 0 0,0
18.05.2019 16:00:00 10,3 9,0 - - 18 10 - - ENE 1010,5 12 0 0,0
18.05.2019 15:00:00 10,0 8,9 - - 18 10 - - ENE 1010,9 10 0 0,0
18.05.2019 14:00:00 10,2 9,2 - - 13 7 - - ENE 1011,0 8 0 0,0
18.05.2019 13:00:00 10,6 9,7 - - 11 6 - - NE 1011,2 11 0 0,0
18.05.2019 12:00:00 10,2 9,4 - - 11 6 - - NNE 1011,7 10 0 0,6
18.05.2019 11:00:00 10,3 9,0 - - 9 5 - - NNE 1012,0 8 0 0,0
18.05.2019 10:00:00 10,4 8,6 11,5 9,7 5 3 - - NNE 1012,1 2,6 0 0,0
18.05.2019 09:00:00 10,1 8,8 - - 13 7 - - E 1012,4 16 0 0,0
18.05.2019 08:00:00 9,3 8,7 - - 13 7 - - NNE 1012,5 5 0 0,0
18.05.2019 07:00:00 8,9 8,2 - - 11 6 - - ENE 1012,9 1,8 0 0,0
18.05.2019 06:00:00 8,3 7,3 - - 16 9 - - ENE 1013,6 15 0 0,0
18.05.2019 05:00:00 8,3 7,4 - - 13 7 - - NE 1013,9 12 0 0,0
18.05.2019 04:00:00 8,1 7,3 - - 13 7 - - NNE 1014,4 10 0 0,0
18.05.2019 03:00:00 8,2 7,6 - - 15 8 - - ENE 1015,6 7 0 0,0
18.05.2019 02:00:00 8,1 7,5 - - 15 8 - - NNE 1015,8 1,5 0 0,0
18.05.2019 01:00:00 7,8 7,2 - - 16 9 - - NNE 1016,7 2,5 - 0,0
18.05.2019 00:00:00 7,5 6,9 - - 13 7 - - NNE 1017,2 3,9 0 0,0
17.05.2019 23:00:00 8,0 7,2 - - 11 6 - - NE 1017,6 5 0 0,0
17.05.2019 22:00:00 7,9 6,9 - - 9 5 - - NE 1017,8 1,6 18 0,0
17.05.2019 21:00:00 10,4 8,0 - - 5 3 - - NE 1018,1 30 60 0,0
17.05.2019 20:00:00 11,8 7,2 - - 11 6 - - NE 1018,2 50 60 0,0
17.05.2019 19:00:00 13,5 7,6 - - 13 7 - - NE 1018,4 45 60 0,0
17.05.2019 18:00:00 14,8 5,4 - - 15 8 - - ESE 1018,9 55 60 0,0
17.05.2019 17:00:00 15,7 5,0 - - 16 9 - - ESE 1019,3 55 60 0,0
17.05.2019 16:00:00 15,0 7,8 - - 16 9 - - E 1019,6 60 60 0,0
17.05.2019 15:00:00 14,5 8,4 - - 16 9 - - E 1019,8 45 60 0,0
17.05.2019 14:00:00 13,4 6,9 - - 22 12 - - ENE 1020,4 55 60 0,0
17.05.2019 13:00:00 13,9 6,0 - - 22 12 - - NE 1020,7 50 60 0,0
17.05.2019 12:00:00 14,3 4,8 - - 16 9 - - E 1021,2 45 60 0,0
17.05.2019 11:00:00 14,3 6,9 - - 18 10 - - E 1021,3 50 60 0,0
17.05.2019 10:00:00 14,9 3,4 11,2 9,4 18 10 - - ESE 1021,5 70 60 0,0
17.05.2019 09:00:00 13,0 5,0 - - 21 11 - - ESE 1021,8 60 60 0,0
17.05.2019 08:00:00 12,1 6,2 - - 21 11 - - ESE 1021,7 45 48 0,0
17.05.2019 07:00:00 11,4 6,9 - - 18 10 - - ESE 1022,0 60 42 0,0
17.05.2019 06:00:00 9,0 8,2 - - 4 2 - - ESE 1022,2 18 30 0,0
17.05.2019 05:00:00 7,1 6,1 - - 11 6 - - SE 1022,3 9 0 0,0
17.05.2019 04:00:00 7,4 6,2 - - 15 8 - - SE 1022,3 21 0 0,0
17.05.2019 03:00:00 7,8 6,8 - - 21 11 - - ESE 1022,4 12 0 0,0
17.05.2019 02:00:00 7,2 5,9 - - 18 10 - - SE 1022,5 14 0 0,0
17.05.2019 01:00:00 7,7 6,2 - - 24 13 - - SE 1022,4 19 - 0,0
17.05.2019 00:00:00 7,7 6,4 - - 22 12 - - SE 1022,8 15 0 0,0
16.05.2019 23:00:00 7,9 6,6 - - 26 14 - - SE 1022,7 16 0 0,0
16.05.2019 22:00:00 7,9 6,3 - - 24 13 - - SE 1022,9 21 0 0,0
16.05.2019 21:00:00 8,7 6,6 - - 24 13 - - SE 1022,7 27 30 0,0
16.05.2019 20:00:00 9,4 6,9 - - 29 16 - - SE 1022,5 29 18 0,0
16.05.2019 19:00:00 9,9 7,2 - - 34 18 55 30 SE 1022,3 30 36 0,0
16.05.2019 18:00:00 11,5 7,7 - - 37 20 54 29 SE 1022,4 30 60 0,0
16.05.2019 17:00:00 11,8 7,8 - - 41 22 54 29 SE 1022,6 30 60 0,0
16.05.2019 16:00:00 12,2 7,4 - - 35 19 50 27 SE 1023,0 35 60 0,0
16.05.2019 15:00:00 12,5 8,0 - - 35 19 52 28 SE 1023,5 35 60 0,0
16.05.2019 14:00:00 12,5 7,9 - - 37 20 52 28 SE 1023,8 28 60 0,0
16.05.2019 13:00:00 12,7 8,6 - - 35 19 50 27 ESE 1024,0 21 60 0,0
16.05.2019 12:00:00 11,8 7,7 - - 37 20 48 26 SE 1024,2 20 60 0,0
16.05.2019 11:00:00 11,5 7,9 - - 37 20 52 28 SE 1024,4 25 54 0,0
16.05.2019 10:00:00 10,7 7,9 11,0 9,2 34 18 46 25 SE 1024,5 18 42 0,0
16.05.2019 09:00:00 9,2 7,6 - - 31 17 - - SE 1024,8 10 0 0,0
16.05.2019 08:00:00 8,0 6,8 - - 31 17 - - SE 1025,1 7 0 0,0
16.05.2019 07:00:00 7,7 7,0 - - 31 17 - - SE 1025,0 3,7 0 0,0
16.05.2019 06:00:00 7,4 6,5 - - 29 16 - - SE 1025,0 4,9 0 0,0
16.05.2019 05:00:00 7,8 6,8 - - 28 15 - - SE 1025,1 6 0 0,0
16.05.2019 04:00:00 7,5 6,6 - - 24 13 - - SE 1025,5 4,6 0 0,0
16.05.2019 03:00:00 7,3 6,5 - - 26 14 - - SE 1025,7 4,5 0 0,0
16.05.2019 02:00:00 7,5 6,7 - - 22 12 - - SE 1026,1 4,8 0 0,0
16.05.2019 01:00:00 7,7 6,8 - - 21 11 - - SE 1026,4 6 - 0,0
16.05.2019 00:00:00 8,2 6,8 - - 16 9 - - SE 1026,5 11 0 0,0
15.05.2019 23:00:00 8,3 6,8 - - 16 9 - - SE 1026,7 15 0 0,0
15.05.2019 22:00:00 8,6 6,9 - - 21 11 - - SE 1026,8 13 0 0,0
15.05.2019 21:00:00 9,8 7,4 - - 21 11 - - SE 1026,8 18 54 0,0
15.05.2019 20:00:00 11,1 7,5 - - 24 13 - - SE 1026,8 25 60 0,0
15.05.2019 19:00:00 12,3 7,5 - - 29 16 - - SE 1026,8 30 60 0,0
15.05.2019 18:00:00 13,3 7,9 - - 29 16 - - SE 1026,8 30 60 0,0
15.05.2019 17:00:00 14,2 7,0 - - 26 14 - - SE 1026,9 40 60 0,0
15.05.2019 16:00:00 14,6 8,1 - - 29 16 - - SE 1027,2 29 60 0,0
15.05.2019 15:00:00 14,4 8,8 - - 29 16 - - SE 1027,4 26 60 0,0
15.05.2019 14:00:00 14,9 8,8 - - 24 13 - - SE 1027,6 30 60 0,0
15.05.2019 13:00:00 14,4 9,0 - - 24 13 - - SE 1027,8 28 60 0,0
15.05.2019 12:00:00 13,8 8,9 - - 22 12 - - SE 1027,8 21 60 0,0
15.05.2019 11:00:00 13,6 9,3 - - 24 13 - - SE 1027,9 28 60 0,0
15.05.2019 10:00:00 13,0 9,0 10,7 9,0 24 13 - - SE 1028,0 27 60 0,0
15.05.2019 09:00:00 12,9 8,4 - - 22 12 - - SE 1028,2 30 60 0,0
15.05.2019 08:00:00 11,5 8,4 - - 22 12 - - SE 1028,2 23 54 0,0
15.05.2019 07:00:00 10,3 8,9 - - 22 12 - - SE 1028,4 17 60 0,0
15.05.2019 06:00:00 8,9 8,3 - - 15 8 - - SE 1028,4 8 18 0,0
15.05.2019 05:00:00 7,0 6,1 - - 4 2 - - ESE 1028,7 8 0 0,0
15.05.2019 04:00:00 7,6 6,8 - - 13 7 - - SE 1029,0 12 0 0,0
15.05.2019 03:00:00 6,5 5,7 - - 5 3 - - SSE 1029,5 5 0 0,0
15.05.2019 02:00:00 7,7 7,0 - - 15 8 - - SE 1029,8 7 0 0,0
15.05.2019 01:00:00 7,0 6,2 - - 0 0 - - N 1030,4 3,4 - 0,0
15.05.2019 00:00:00 7,6 6,6 - - 13 7 - - ESE 1030,7 4,8 0 0,0
14.05.2019 23:00:00 7,9 6,6 - - 9 5 - - E 1030,8 13 0 0,0
14.05.2019 22:00:00 9,3 7,0 - - 0 0 - - N 1031,0 29 0 0,0
14.05.2019 21:00:00 10,3 7,7 - - 8 4 - - ESE 1030,8 30 24 0,0
14.05.2019 20:00:00 13,4 7,5 - - 8 4 - - E 1030,9 55 60 0,0
14.05.2019 19:00:00 13,9 8,0 - - 15 8 - - E 1031,1 50 60 0,0
14.05.2019 18:00:00 16,8 4,3 - - 9 5 - - E 1031,3 70 60 0,0
14.05.2019 17:00:00 18,4 2,2 - - 11 6 - - SSE 1031,4 55 60 0,0

tt = Température de l'air
td = dewpoint
tt -20cm = Température de l'air -20cm
tt -100cm = Température de l'air -100cm
ff = Vitesse du vent
fx = gusts
dd = Direction du vent
ppp = reduced air pressure
vv = visibility
sd = Ensoleillement
rr = Quantités de précipitations

stations d'obs. à proximité